Content
SEND FEEDBACK

Daily
Averages
Monthly
Summary
United States of America

HIGH POINT, NORTH CAROLINA


Home > North America > United States > North Carolina
Elevation: 867 feet     Latitude: 35 58N     Longitude: 079 59W

WEATHER
 
SELECT A DAY
Number of Records: 102,807;   Date Range: 1/1/95 - 8/12/14
 
SHARE

PRINT THIS DATA

[ ← Previous Day ]
WEATHER ALMANAC - FEBRUARY 13, 2013
[ Next Day → ]
[ °C ]   °F
Weather ElementAverageHighLow
Temperature43.3 °F45 °F (1:54 am)36 °F (11:54 pm)
Dewpoint40.7 °F43 °F (2:54 pm)30.9 °F (11:54 pm)
Humidity90.8 %100 % (5:30 am)71 % (8:54 pm)
Barometer29.75 in29.85 in (1:54 am)29.63 in (2:14 pm)
Wind Speed6.1 mph19.6 mph (8:37 pm)
Wind Gust28.8 mph (8:37 pm)
Weather ElementAverage
Visibility5.5 mi
Wind DirectionSSE (154.7 °)

Weather ElementTotal
Precipitation0.31 in
Heating Degree Days24.5 (Base 65)
Averaged from 36 records on February 13, 2013
WEATHER CONDITIONS BREAKOUT
WIND DIRECTION BREAKOUT
WEATHER BY HOUR - FEBRUARY 13, 2013
[ °C ]   °F
Local TimeTemperatureDewpointHumidityBarometerVisibilityWind DirectionWind SpeedGust SpeedPrecipitationEventsConditions
1:54 AM45.0 °F37.9 °F76 %29.85 in10.0 miENE (70°)4.6 mph0.00 inMostly Cloudy
2:54 AM44.1 °F39.9 °F85 %29.83 in6.0 miENE (60°)4.6 mph0.05 inRainRain
3:54 AM44.1 °F39.9 °F85 %29.81 in10.0 miCalm0.03 inRainLight Rain
4:54 AM43.0 °F42.1 °F97 %29.81 in4.0 miSouth (170°)3.5 mph0.05 inRainLight Rain
5:30 AM42.8 °F42.8 °F100 %29.82 in3.0 miSouth (180°)3.5 mph0.05 inRainLight Rain
5:54 AM43.0 °F42.1 °F97 %29.81 in6.0 miCalm0.07 inRainLight Rain
6:14 AM42.8 °F41.0 °F93 %29.82 in6.0 miCalm0.00 inRainLight Rain
6:54 AM43.0 °F41.0 °F93 %29.81 in4.0 miEast (80°)3.5 mph0.03 inRainLight Rain
7:40 AM42.8 °F41.0 °F93 %29.80 in2.0 miESE (120°)5.8 mph0.00 inRainLight Rain
7:50 AM42.8 °F41.0 °F93 %29.79 in2.0 miESE (110°)5.8 mph0.01 inRainLight Rain
7:54 AM43.0 °F41.0 °F93 %29.80 in2.5 miEast (100°)4.6 mph0.01 inRainLight Rain
8:02 AM42.8 °F42.8 °F100 %29.81 in4.0 miCalm0.00 inRainLight Rain
8:54 AM43.0 °F41.0 °F93 %29.81 in4.0 miESE (110°)6.9 mph0.01 inOvercast
9:54 AM43.0 °F41.0 °F93 %29.77 in4.0 miESE (120°)6.9 mphOvercast
10:54 AM43.0 °F41.0 °F93 %29.76 in4.0 miSSE (150°)6.9 mph0.00 inRainLight Rain
11:54 AM43.0 °F41.0 °F93 %29.72 in3.0 miESE (120°)3.5 mph0.00 inLight Drizzle
12:12 PM42.8 °F41.0 °F93 %29.72 in2.0 miCalm0.00 inLight Drizzle
12:54 PM43.0 °F42.1 °F97 %29.68 in1.5 miCalm0.00 inLight Drizzle
1:19 PM44.6 °F42.8 °F93 %29.68 in2.0 miSW (220°)3.5 mph0.00 inLight Drizzle
1:28 PM44.6 °F42.8 °F93 %29.65 in2.0 miCalm0.00 inLight Drizzle
1:54 PM44.1 °F42.1 °F93 %29.64 in2.0 miCalm0.00 inLight Drizzle
2:14 PM44.6 °F42.8 °F93 %29.63 in2.0 miSouth (180°)4.6 mph0.00 inLight Drizzle
2:54 PM44.1 °F43.0 °F96 %29.64 in2.0 miSW (220°)5.8 mph0.00 inLight Drizzle
3:34 PM44.6 °F42.8 °F93 %29.64 in3.0 miSW (230°)5.8 mph0.00 inLight Drizzle
3:54 PM45.0 °F43.0 °F93 %29.64 in5.0 miWSW (240°)6.9 mph0.00 inOvercast
4:54 PM45.0 °F43.0 °F93 %29.66 in4.0 miWest (270°)6.9 mphOvercast
5:54 PM45.0 °F43.0 °F93 %29.66 in8.0 miWSW (250°)8.1 mphOvercast
6:54 PM45.0 °F43.0 °F93 %29.70 in10.0 miWest (260°)9.2 mphOvercast
7:21 PM44.6 °F42.8 °F93 %29.70 in10.0 miWSW (250°)13.8 mphMostly Cloudy
7:38 PM44.6 °F42.8 °F93 %29.71 in10.0 miWest (260°)15.0 mph23.0 mph0.00 inRainLight Rain
7:54 PM45.0 °F43.0 °F93 %29.73 in10.0 miWest (270°)13.8 mph0.00 inMostly Cloudy
8:37 PM44.6 °F39.2 °F81 %29.75 in10.0 miNW (320°)19.6 mph28.8 mphMostly Cloudy
8:54 PM44.1 °F35.1 °F71 %29.76 in10.0 miNW (310°)18.4 mph24.2 mphPartly Cloudy
9:54 PM41.0 °F33.1 °F73 %29.80 in10.0 miNW (310°)11.5 mphClear
10:54 PM37.0 °F32.0 °F82 %29.82 in10.0 miWNW (300°)9.2 mphClear
11:54 PM36.0 °F30.9 °F82 %29.84 in10.0 miWNW (290°)8.1 mphClear
Hourly data recorded from KGSO, located miles away from High Point, North Carolina







STORIES FROM OUR PARTNERS